Time,TemperatureF,DewpointF,PressureIn,WindDirection,WindDirectionDegrees,WindSpeedMPH,WindSpeedGustMPH,Humidity,HourlyPrecipIn,Conditions,Clouds,dailyrainin,SoftwareType,DateUTC
2013-02-25 00:01:00,27.0,23.0,-100.00,NNE,25,0.0,1.0,84,0.00,,,-99.99,,2013-02-25 05:01:00,
2013-02-25 00:11:00,27.0,23.0,-100.00,East,80,0.0,1.0,85,0.00,,,-99.99,,2013-02-25 05:11:00,
2013-02-25 00:22:00,27.0,23.0,-100.00,NE,55,0.0,1.0,87,0.00,,,-99.99,,2013-02-25 05:22:00,
2013-02-25 00:32:00,26.0,23.0,-100.00,South,180,1.0,3.0,87,0.00,,,-99.99,,2013-02-25 05:32:00,
2013-02-25 00:42:00,26.0,23.0,-100.00,South,185,0.0,0.0,88,0.00,,,-99.99,,2013-02-25 05:42:00,
2013-02-25 00:52:00,26.0,23.0,-100.00,NE,35,0.0,1.0,88,0.00,,,-99.99,,2013-02-25 05:52:00,
2013-02-25 01:02:00,26.0,23.0,-100.00,NE,35,0.0,1.0,88,0.00,,,-99.99,,2013-02-25 06:02:00,
2013-02-25 01:11:00,26.0,23.0,-100.00,NNE,20,0.0,1.0,89,0.00,,,-99.99,,2013-02-25 06:11:00,
2013-02-25 01:21:00,25.0,23.0,-100.00,East,90,0.0,1.0,89,0.00,,,-99.99,,2013-02-25 06:21:00,
2013-02-25 01:32:00,25.0,22.0,-100.00,NNE,20,0.0,1.0,89,0.00,,,-99.99,,2013-02-25 06:32:00,
2013-02-25 01:42:00,25.0,22.0,-100.00,NE,40,0.0,1.0,89,0.00,,,-99.99,,2013-02-25 06:42:00,
2013-02-25 01:51:00,25.0,22.0,-100.00,SE,145,0.0,1.0,89,0.00,,,-99.99,,2013-02-25 06:51:00,
2013-02-25 02:01:00,25.0,22.0,-100.00,ENE,75,0.0,1.0,89,0.00,,,-99.99,,2013-02-25 07:01:00,
2013-02-25 02:11:00,24.0,22.0,-100.00,SE,125,0.0,3.0,89,0.00,,,-99.99,,2013-02-25 07:11:00,
2013-02-25 02:21:00,24.0,22.0,-100.00,North,10,0.0,1.0,90,0.00,,,-99.99,,2013-02-25 07:21:00,
2013-02-25 02:32:00,24.0,22.0,-100.00,NNE,30,0.0,1.0,90,0.00,,,-99.99,,2013-02-25 07:32:00,
2013-02-25 02:42:00,24.0,22.0,-100.00,NE,55,0.0,1.0,90,0.00,,,-99.99,,2013-02-25 07:42:00,
2013-02-25 02:51:00,24.0,22.0,-100.00,East,100,0.0,1.0,90,0.00,,,-99.99,,2013-02-25 07:51:00,
2013-02-25 03:01:00,24.0,21.0,-100.00,ENE,75,0.0,1.0,90,0.00,,,-99.99,,2013-02-25 08:01:00,
2013-02-25 03:11:00,24.0,22.0,-100.00,East,85,0.0,1.0,91,0.00,,,-99.99,,2013-02-25 08:11:00,
2013-02-25 03:21:00,24.0,22.0,-100.00,SSE,150,0.0,1.0,91,0.00,,,-99.99,,2013-02-25 08:21:00,
2013-02-25 03:32:00,24.0,22.0,-100.00,East,95,0.0,2.0,91,0.00,,,-99.99,,2013-02-25 08:32:00,
2013-02-25 03:41:00,24.0,22.0,-100.00,ESE,105,0.0,1.0,91,0.00,,,-99.99,,2013-02-25 08:41:00,
2013-02-25 03:52:00,24.0,21.0,-100.00,ENE,60,0.0,1.0,91,0.00,,,-99.99,,2013-02-25 08:52:00,
2013-02-25 04:01:00,24.0,22.0,-100.00,NE,55,0.0,0.0,91,0.00,,,-99.99,,2013-02-25 09:01:00,
2013-02-25 04:12:00,24.0,22.0,-100.00,ENE,65,0.0,1.0,91,0.00,,,-99.99,,2013-02-25 09:12:00,
2013-02-25 04:21:00,23.0,21.0,-100.00,NNE,15,0.0,2.0,91,0.00,,,-99.99,,2013-02-25 09:21:00,
2013-02-25 04:32:00,23.0,20.0,-100.00,NNE,30,0.0,1.0,90,0.00,,,-99.99,,2013-02-25 09:32:00,
2013-02-25 04:42:00,23.0,20.0,-100.00,North,10,0.0,2.0,91,0.00,,,-99.99,,2013-02-25 09:42:00,
2013-02-25 04:52:00,23.0,21.0,-100.00,NE,50,0.0,2.0,91,0.00,,,-99.99,,2013-02-25 09:52:00,
2013-02-25 05:01:00,24.0,21.0,-100.00,East,100,0.0,1.0,91,0.00,,,-99.99,,2013-02-25 10:01:00,
2013-02-25 05:11:00,23.0,21.0,-100.00,SE,125,0.0,1.0,91,0.00,,,-99.99,,2013-02-25 10:11:00,
2013-02-25 05:21:00,24.0,22.0,-100.00,South,170,0.0,1.0,91,0.00,,,-99.99,,2013-02-25 10:21:00,
2013-02-25 05:32:00,23.0,21.0,-100.00,South,175,1.0,1.0,90,0.00,,,-99.99,,2013-02-25 10:32:00,
2013-02-25 05:42:00,24.0,21.0,-100.00,South,170,0.0,2.0,90,0.00,,,-99.99,,2013-02-25 10:42:00,
2013-02-25 05:52:00,24.0,21.0,-100.00,SE,135,0.0,0.0,90,0.00,,,-99.99,,2013-02-25 10:52:00,
2013-02-25 06:01:00,24.0,21.0,-100.00,SSE,150,0.0,1.0,90,0.00,,,-99.99,,2013-02-25 11:01:00,
2013-02-25 06:11:00,24.0,21.0,-100.00,North,10,1.0,2.0,90,0.00,,,-99.99,,2013-02-25 11:11:00,
2013-02-25 06:22:00,24.0,21.0,-100.00,SE,130,0.0,1.0,90,0.00,,,-99.99,,2013-02-25 11:22:00,
2013-02-25 06:32:00,24.0,21.0,-100.00,NE,45,0.0,1.0,90,0.00,,,-99.99,,2013-02-25 11:32:00,
2013-02-25 06:42:00,24.0,21.0,-100.00,South,175,0.0,2.0,89,0.00,,,-99.99,,2013-02-25 11:42:00,
2013-02-25 06:52:00,24.0,21.0,-100.00,SSE,155,0.0,1.0,90,0.00,,,-99.99,,2013-02-25 11:52:00,
2013-02-25 07:02:00,24.0,21.0,-100.00,NNW,330,0.0,1.0,89,0.00,,,-99.99,,2013-02-25 12:02:00,
2013-02-25 07:11:00,24.0,21.0,-100.00,NE,50,0.0,2.0,89,0.00,,,-99.99,,2013-02-25 12:11:00,
2013-02-25 07:21:00,24.0,21.0,-100.00,ESE,110,0.0,3.0,88,0.00,,,-99.99,,2013-02-25 12:21:00,
2013-02-25 07:32:00,24.0,21.0,-100.00,North,350,0.0,3.0,89,0.00,,,-99.99,,2013-02-25 12:32:00,
2013-02-25 07:42:00,23.0,21.0,-100.00,NNE,15,1.0,2.0,89,0.00,,,-99.99,,2013-02-25 12:42:00,
2013-02-25 07:54:00,24.0,21.0,-100.00,NNE,30,0.0,2.0,89,0.00,,,-99.99,,2013-02-25 12:54:00,
2013-02-25 08:02:00,24.0,21.0,-100.00,North,10,1.0,2.0,88,0.00,,,-99.99,,2013-02-25 13:02:00,
2013-02-25 08:12:00,24.0,21.0,-100.00,North,10,1.0,2.0,88,0.00,,,-99.99,,2013-02-25 13:12:00,
2013-02-25 08:22:00,26.0,22.0,-100.00,North,5,1.0,3.0,86,0.00,,,-99.99,,2013-02-25 13:22:00,
2013-02-25 08:32:00,27.0,23.0,-100.00,NNE,15,1.0,2.0,85,0.00,,,-99.99,,2013-02-25 13:32:00,
2013-02-25 08:42:00,28.0,24.0,-100.00,NE,45,1.0,3.0,82,0.00,,,-99.99,,2013-02-25 13:42:00,
2013-02-25 08:52:00,29.0,24.0,-100.00,North,10,1.0,3.0,81,0.00,,,-99.99,,2013-02-25 13:52:00,
2013-02-25 09:03:00,30.0,25.0,-100.00,NNE,20,1.0,3.0,80,0.00,,,-99.99,,2013-02-25 14:03:00,
2013-02-25 09:17:00,31.0,26.0,-100.00,NE,55,2.0,4.0,78,0.00,,,-99.99,,2013-02-25 14:17:00,
2013-02-25 09:32:00,35.0,25.0,-100.00,ENE,75,2.0,6.0,68,0.00,,,-99.99,,2013-02-25 14:32:00,
2013-02-25 09:42:00,34.0,25.0,-100.00,East,85,5.0,8.0,68,0.00,,,-99.99,,2013-02-25 14:42:00,
2013-02-25 09:52:00,34.0,25.0,-100.00,ENE,60,6.0,9.0,69,0.00,,,-99.99,,2013-02-25 14:52:00,
2013-02-25 10:03:00,35.0,26.0,-100.00,East,90,6.0,9.0,70,0.00,,,-99.99,,2013-02-25 15:03:00,
2013-02-25 10:11:00,35.0,26.0,-100.00,NE,55,6.0,9.0,69,0.00,,,-99.99,,2013-02-25 15:11:00,
2013-02-25 10:22:00,36.0,26.0,-100.00,East,95,3.0,9.0,67,0.00,,,-99.99,,2013-02-25 15:22:00,
2013-02-25 10:32:00,36.0,25.0,-100.00,East,80,6.0,9.0,63,0.00,,,-99.99,,2013-02-25 15:32:00,
2013-02-25 10:42:00,37.0,25.0,-100.00,East,80,4.0,9.0,59,0.00,,,-99.99,,2013-02-25 15:42:00,
2013-02-25 10:51:00,37.0,24.0,-100.00,East,85,5.0,9.0,58,0.00,,,-99.99,,2013-02-25 15:51:00,
2013-02-25 11:02:00,38.0,24.0,-100.00,East,95,5.0,10.0,57,0.00,,,-99.99,,2013-02-25 16:02:00,
2013-02-25 11:12:00,38.0,22.0,-100.00,ENE,75,6.0,10.0,53,0.00,,,-99.99,,2013-02-25 16:12:00,
2013-02-25 11:21:00,38.0,23.0,-100.00,East,80,5.0,10.0,55,0.00,,,-99.99,,2013-02-25 16:21:00,
2013-02-25 11:32:00,38.0,22.0,-100.00,ENE,75,7.0,12.0,53,0.00,,,-99.99,,2013-02-25 16:32:00,
2013-02-25 11:42:00,38.0,24.0,-100.00,NE,55,6.0,9.0,54,0.00,,,-99.99,,2013-02-25 16:42:00,
2013-02-25 11:51:00,38.0,24.0,-100.00,East,100,5.0,9.0,55,0.00,,,-99.99,,2013-02-25 16:51:00,
2013-02-25 12:02:00,38.0,23.0,-100.00,SE,125,4.0,11.0,54,0.00,,,-99.99,,2013-02-25 17:02:00,
2013-02-25 12:11:00,39.0,23.0,-100.00,NE,40,4.0,11.0,52,0.00,,,-99.99,,2013-02-25 17:11:00,
2013-02-25 12:21:00,40.0,23.0,-100.00,East,100,5.0,9.0,51,0.00,,,-99.99,,2013-02-25 17:21:00,
2013-02-25 12:32:00,39.0,25.0,-100.00,ESE,120,6.0,10.0,54,0.00,,,-99.99,,2013-02-25 17:32:00,
2013-02-25 12:42:00,40.0,24.0,-100.00,ENE,75,3.0,9.0,51,0.00,,,-99.99,,2013-02-25 17:42:00,
2013-02-25 12:52:00,40.0,24.0,-100.00,ESE,120,4.0,12.0,51,0.00,,,-99.99,,2013-02-25 17:52:00,
2013-02-25 13:02:00,39.0,22.0,-100.00,East,80,7.0,11.0,50,0.00,,,-99.99,,2013-02-25 18:02:00,
2013-02-25 13:12:00,40.0,24.0,-100.00,East,80,4.0,10.0,51,0.00,,,-99.99,,2013-02-25 18:12:00,
2013-02-25 13:21:00,40.0,24.0,-100.00,ENE,65,6.0,11.0,52,0.00,,,-99.99,,2013-02-25 18:21:00,
2013-02-25 13:33:00,41.0,25.0,-100.00,ESE,110,6.0,9.0,53,0.00,,,-99.99,,2013-02-25 18:33:00,
2013-02-25 13:42:00,40.0,24.0,-100.00,NE,40,5.0,11.0,51,0.00,,,-99.99,,2013-02-25 18:42:00,
2013-02-25 13:51:00,42.0,25.0,-100.00,ENE,60,4.0,9.0,50,0.00,,,-99.99,,2013-02-25 18:51:00,
2013-02-25 14:01:00,41.0,24.0,-100.00,East,80,9.0,12.0,51,0.00,,,-99.99,,2013-02-25 19:01:00,
2013-02-25 14:11:00,42.0,24.0,-100.00,ENE,65,5.0,12.0,49,0.00,,,-99.99,,2013-02-25 19:11:00,
2013-02-25 14:21:00,42.0,24.0,-100.00,NE,50,4.0,12.0,50,0.00,,,-99.99,,2013-02-25 19:21:00,
2013-02-25 14:32:00,43.0,25.0,-100.00,ENE,70,5.0,11.0,49,0.00,,,-99.99,,2013-02-25 19:32:00,
2013-02-25 14:42:00,42.0,25.0,-100.00,NNE,30,6.0,11.0,51,0.00,,,-99.99,,2013-02-25 19:42:00,
2013-02-25 14:52:00,43.0,26.0,-100.00,SE,130,4.0,12.0,50,0.00,,,-99.99,,2013-02-25 19:52:00,
2013-02-25 15:01:00,43.0,26.0,-100.00,NE,55,4.0,8.0,50,0.00,,,-99.99,,2013-02-25 20:01:00,
2013-02-25 15:11:00,43.0,25.0,-100.00,East,100,6.0,12.0,49,0.00,,,-99.99,,2013-02-25 20:11:00,
2013-02-25 15:21:00,43.0,26.0,-100.00,NE,35,1.0,10.0,50,0.00,,,-99.99,,2013-02-25 20:21:00,
2013-02-25 15:32:00,43.0,25.0,-100.00,East,85,8.0,11.0,48,0.00,,,-99.99,,2013-02-25 20:32:00,
2013-02-25 15:42:00,44.0,26.0,-100.00,East,85,4.0,11.0,48,0.00,,,-99.99,,2013-02-25 20:42:00,
2013-02-25 15:52:00,43.0,25.0,-100.00,East,100,6.0,11.0,48,0.00,,,-99.99,,2013-02-25 20:52:00,
2013-02-25 16:02:00,44.0,26.0,-100.00,ESE,105,4.0,11.0,48,0.00,,,-99.99,,2013-02-25 21:02:00,
2013-02-25 16:11:00,43.0,26.0,-100.00,NE,50,7.0,11.0,49,0.00,,,-99.99,,2013-02-25 21:11:00,
2013-02-25 16:21:00,44.0,25.0,-100.00,East,80,6.0,10.0,47,0.00,,,-99.99,,2013-02-25 21:21:00,
2013-02-25 16:32:00,44.0,25.0,-100.00,ESE,115,2.0,10.0,47,0.00,,,-99.99,,2013-02-25 21:32:00,
2013-02-25 16:42:00,43.0,25.0,-100.00,ESE,105,6.0,11.0,49,0.00,,,-99.99,,2013-02-25 21:42:00,
2013-02-25 16:51:00,43.0,25.0,-100.00,ENE,75,7.0,11.0,48,0.00,,,-99.99,,2013-02-25 21:51:00,
2013-02-25 17:01:00,43.0,26.0,-100.00,NE,50,5.0,12.0,49,0.00,,,-99.99,,2013-02-25 22:01:00,
2013-02-25 17:11:00,43.0,26.0,-100.00,ENE,60,4.0,12.0,50,0.00,,,-99.99,,2013-02-25 22:11:00,
2013-02-25 17:21:00,43.0,26.0,-100.00,ENE,60,4.0,9.0,51,0.00,,,-99.99,,2013-02-25 22:21:00,
2013-02-25 17:32:00,42.0,26.0,-100.00,NE,55,6.0,13.0,51,0.00,,,-99.99,,2013-02-25 22:32:00,
2013-02-25 17:42:00,42.0,26.0,-100.00,NNE,20,6.0,12.0,52,0.00,,,-99.99,,2013-02-25 22:42:00,
2013-02-25 17:51:00,42.0,26.0,-100.00,NE,50,6.0,9.0,53,0.00,,,-99.99,,2013-02-25 22:51:00,
2013-02-25 18:01:00,41.0,26.0,-100.00,NE,40,6.0,12.0,54,0.00,,,-99.99,,2013-02-25 23:01:00,
2013-02-25 18:11:00,41.0,26.0,-100.00,NE,45,4.0,9.0,55,0.00,,,-99.99,,2013-02-25 23:11:00,
2013-02-25 18:22:00,40.0,26.0,-100.00,NNE,25,4.0,8.0,56,0.00,,,-99.99,,2013-02-25 23:22:00,
2013-02-25 18:32:00,40.0,26.0,-100.00,NNE,20,4.0,7.0,58,0.00,,,-99.99,,2013-02-25 23:32:00,
2013-02-25 18:42:00,39.0,26.0,-100.00,NE,45,4.0,6.0,59,0.00,,,-99.99,,2013-02-25 23:42:00,
2013-02-25 18:52:00,39.0,26.0,-100.00,NNE,30,4.0,6.0,60,0.00,,,-99.99,,2013-02-25 23:52:00,
2013-02-25 19:02:00,38.0,26.0,-100.00,NNE,20,4.0,7.0,61,0.00,,,-99.99,,2013-02-26 00:02:00,
2013-02-25 19:12:00,38.0,26.0,-100.00,NNE,20,4.0,6.0,62,0.00,,,-99.99,,2013-02-26 00:12:00,
2013-02-25 19:22:00,38.0,26.0,-100.00,NNE,20,4.0,7.0,62,0.00,,,-99.99,,2013-02-26 00:22:00,
2013-02-25 19:32:00,37.0,26.0,-100.00,North,10,4.0,6.0,63,0.00,,,-99.99,,2013-02-26 00:32:00,
2013-02-25 19:42:00,37.0,26.0,-100.00,ENE,60,3.0,6.0,64,0.00,,,-99.99,,2013-02-26 00:42:00,
2013-02-25 19:51:00,37.0,26.0,-100.00,NE,40,4.0,8.0,64,0.00,,,-99.99,,2013-02-26 00:51:00,
2013-02-25 20:02:00,37.0,26.0,-100.00,NE,45,4.0,7.0,65,0.00,,,-99.99,,2013-02-26 01:02:00,
2013-02-25 20:11:00,36.0,26.0,-100.00,NE,40,6.0,9.0,65,0.00,,,-99.99,,2013-02-26 01:11:00,
2013-02-25 20:21:00,36.0,26.0,-100.00,NE,45,6.0,9.0,65,0.00,,,-99.99,,2013-02-26 01:21:00,
2013-02-25 20:32:00,36.0,26.0,-100.00,NNE,20,6.0,9.0,66,0.00,,,-99.99,,2013-02-26 01:32:00,
2013-02-25 20:42:00,35.0,26.0,-100.00,NNE,30,6.0,11.0,68,0.00,,,-99.99,,2013-02-26 01:42:00,
2013-02-25 20:51:00,35.0,26.0,-100.00,NE,35,7.0,12.0,71,0.00,,,-99.99,,2013-02-26 01:51:00,
2013-02-25 21:01:00,34.0,27.0,-100.00,NNE,25,6.0,12.0,73,0.00,,,-99.99,,2013-02-26 02:01:00,
2013-02-25 21:11:00,34.0,27.0,-100.00,NE,40,8.0,12.0,75,0.00,,,-99.99,,2013-02-26 02:11:00,
2013-02-25 21:21:00,33.0,27.0,-100.00,NE,50,6.0,11.0,76,0.00,,,-99.99,,2013-02-26 02:21:00,
2013-02-25 21:32:00,33.0,27.0,-100.00,ENE,60,7.0,12.0,76,0.00,,,-99.99,,2013-02-26 02:32:00,
2013-02-25 21:42:00,33.0,27.0,-100.00,NE,55,7.0,14.0,76,0.00,,,-99.99,,2013-02-26 02:42:00,
2013-02-25 21:52:00,33.0,26.0,-100.00,NE,55,7.0,12.0,76,0.00,,,-99.99,,2013-02-26 02:52:00,
2013-02-25 22:02:00,33.0,26.0,-100.00,ENE,65,7.0,12.0,76,0.00,,,-99.99,,2013-02-26 03:02:00,
2013-02-25 22:11:00,32.0,26.0,-100.00,NE,45,5.0,9.0,77,0.00,,,-99.99,,2013-02-26 03:11:00,
2013-02-25 22:21:00,32.0,26.0,-100.00,ENE,60,5.0,8.0,77,0.00,,,-99.99,,2013-02-26 03:21:00,
2013-02-25 22:32:00,32.0,26.0,-100.00,NE,55,6.0,9.0,77,0.00,,,-99.99,,2013-02-26 03:32:00,
2013-02-25 22:42:00,32.0,26.0,-100.00,NE,50,3.0,9.0,78,0.00,,,-99.99,,2013-02-26 03:42:00,
2013-02-25 22:52:00,32.0,26.0,-100.00,NE,35,4.0,8.0,78,0.00,,,-99.99,,2013-02-26 03:52:00,
2013-02-25 23:01:00,31.0,26.0,-100.00,NE,50,4.0,7.0,79,0.00,,,-99.99,,2013-02-26 04:01:00,
2013-02-25 23:11:00,31.0,26.0,-100.00,NNE,30,3.0,6.0,79,0.00,,,-99.99,,2013-02-26 04:11:00,
2013-02-25 23:22:00,31.0,26.0,-100.00,NE,35,4.0,7.0,79,0.00,,,-99.99,,2013-02-26 04:22:00,
2013-02-25 23:32:00,31.0,26.0,-100.00,North,10,4.0,7.0,80,0.00,,,-99.99,,2013-02-26 04:32:00,
2013-02-25 23:42:00,31.0,26.0,-100.00,NNE,30,5.0,9.0,79,0.00,,,-99.99,,2013-02-26 04:42:00,
2013-02-25 23:52:00,31.0,26.0,-100.00,NNE,30,5.0,9.0,79,0.00,,,-99.99,,2013-02-26 04:52:00,